Weather History for Richmond, KY

Change the Weather History Date:

Sunday, June 30, 2013

  Actual Average (KLOZ) Record (KLOZ)
Temperature  
Mean Temperature 70 °F 76 °F  
Max Temperature 78 °F 86 °F 104 °F (2012)
Min Temperature 62 °F 65 °F 53 °F (1962)
Degree Days  
Heating Degree Days 0 0  
Month to date heating degree days 7  
Since 1 June heating degree days 9  
Since 1 July heating degree days 4205  
Cooling Degree Days 5 11  
Growing Degree Days 20 (Base 50)    
Moisture  
Dew Point 62 °F    
Average Humidity 77    
Maximum Humidity 100    
Minimum Humidity 51    
Precipitation  
Precipitation 0.00 in 0.14 in 1.87 in (1997)
Sea Level Pressure  
Sea Level Pressure 29.76 in    
Wind  
Wind Speed 2 mph (WNW)    
Max Wind Speed 9 mph    
Max Gust Speed -    
Visibility 8 miles    
Events      
T = Trace of Precipitation, MM = Missing Value Source: NWS Daily Summary

Daily Weather History Graph

Daily Weather History Graph

Search for Another Location

Airport:

Trip Planner

Search our weather history database for the weather conditions in past years. The results will help you decide how hot, cold, wet, or windy it might be!

Date:

Astronomy

Jun. 30, 2013 Rise Set
Actual Time 6:19 AM EDT 9:02 PM EDT
Civil Twilight 5:48 AM EDT 9:33 PM EDT
Nautical Twilight 5:09 AM EDT 10:12 PM EDT
Astronomical Twilight 4:25 AM EDT 10:56 PM EDT
Moon 1:11 AM EDT 2:21 PM EDT
Length of Visible Light 15h 45m
Length of Day
14h 43m
Last Quarter, 45% of the Moon is Illuminated
Jun 30
Last Quarter
Jul 8
New
Jul 15
First Quarter
Jul 22
Full
Jul 29
Last Quarter

Hourly Weather History & Observations

Time (EDT) Temp. Dew Point Humidity Pressure Visibility Wind Dir Wind Speed Gust Speed Precip Events Conditions
12:15 AM 64.4 °F 62.6 °F 94% 29.70 in 10.0 mi Calm Calm - N/A   Mostly Cloudy
12:35 AM 64.4 °F 62.6 °F 94% 29.72 in 10.0 mi Calm Calm - N/A   Overcast
12:55 AM 64.4 °F 62.6 °F 94% 29.71 in 10.0 mi NNE 3.5 mph - N/A   Mostly Cloudy
1:15 AM 64.4 °F 62.6 °F 94% 29.70 in 10.0 mi ESE 4.6 mph - N/A   Scattered Clouds
1:35 AM 64.4 °F 62.6 °F 94% 29.70 in 10.0 mi SSE 4.6 mph - N/A   Mostly Cloudy
1:55 AM 64.4 °F 62.6 °F 94% 29.70 in 7.0 mi South 4.6 mph - N/A   Overcast
2:15 AM 64.4 °F 62.6 °F 94% 29.70 in 7.0 mi Calm Calm - N/A   Overcast
2:35 AM 64.4 °F 62.6 °F 94% 29.69 in 3.0 mi Calm Calm - N/A   Overcast
2:55 AM 64.4 °F 62.6 °F 94% 29.70 in 4.0 mi South 3.5 mph - N/A   Scattered Clouds
3:15 AM 64.4 °F 62.6 °F 94% 29.69 in 5.0 mi Calm Calm - N/A   Clear
3:55 AM 62.6 °F 60.8 °F 94% 29.69 in 1.5 mi Calm Calm - N/A   Scattered Clouds
4:15 AM 62.6 °F 60.8 °F 94% 29.69 in 0.2 mi Calm Calm - N/A   Overcast
4:35 AM 62.6 °F 60.8 °F 94% 29.69 in 0.2 mi Calm Calm - N/A   Overcast
4:55 AM 62.6 °F 60.8 °F 94% 29.69 in 0.2 mi Calm Calm - N/A   Overcast
5:15 AM 62.6 °F 60.8 °F 94% 29.70 in 0.5 mi Calm Calm - N/A   Overcast
5:35 AM 62.6 °F 60.8 °F 94% 29.70 in 0.5 mi Calm Calm - N/A   Overcast
5:55 AM 62.6 °F 60.8 °F 94% 29.72 in 0.2 mi NW 3.5 mph - N/A   Overcast
6:15 AM 62.6 °F 60.8 °F 94% 29.73 in 0.2 mi Calm Calm - N/A   Overcast
6:35 AM 62.6 °F 60.8 °F 94% 29.72 in 0.2 mi Calm Calm - N/A   Overcast
6:55 AM 62.6 °F 60.8 °F 94% 29.73 in 0.2 mi Calm Calm - N/A   Overcast
7:15 AM 62.6 °F 60.8 °F 94% 29.73 in 0.2 mi Calm Calm - N/A   Overcast
7:35 AM 62.6 °F 60.8 °F 94% 29.74 in 0.5 mi SE 3.5 mph - N/A   Overcast
7:55 AM 64.4 °F 62.6 °F 94% 29.74 in 0.2 mi Calm Calm - N/A   Overcast
8:15 AM 64.4 °F 62.6 °F 94% 29.74 in 3.0 mi Calm Calm - N/A   Overcast
8:35 AM 64.4 °F 62.6 °F 94% 29.75 in 7.0 mi Calm Calm - N/A   Mostly Cloudy
8:55 AM 66.2 °F 64.4 °F 94% 29.75 in 10.0 mi Calm Calm - N/A   Scattered Clouds
9:15 AM 66.2 °F 66.2 °F 100% 29.76 in 10.0 mi Calm Calm - N/A   Mostly Cloudy
9:35 AM 66.2 °F 64.4 °F 94% 29.76 in 10.0 mi WNW 4.6 mph - N/A   Scattered Clouds
9:55 AM 68.0 °F 66.2 °F 94% 29.77 in 10.0 mi West 4.6 mph - N/A   Clear
10:15 AM 68.0 °F 66.2 °F 94% 29.77 in 10.0 mi Calm Calm - N/A   Scattered Clouds
10:35 AM 69.8 °F 66.2 °F 88% 29.77 in 10.0 mi WNW 4.6 mph - N/A   Mostly Cloudy
10:55 AM 69.8 °F 66.2 °F 88% 29.77 in 10.0 mi WNW 3.5 mph - N/A   Mostly Cloudy
11:15 AM 71.6 °F 66.2 °F 83% 29.78 in 10.0 mi West 4.6 mph - N/A   Mostly Cloudy
11:35 AM 73.4 °F 64.4 °F 73% 29.77 in 10.0 mi West 4.6 mph - N/A   Scattered Clouds
11:55 AM 73.4 °F 64.4 °F 73% 29.78 in 10.0 mi WNW 5.8 mph - N/A   Scattered Clouds
12:15 PM 75.2 °F 64.4 °F 69% 29.78 in 10.0 mi West 5.8 mph - N/A   Mostly Cloudy
12:35 PM 75.2 °F 64.4 °F 69% 29.78 in 10.0 mi West 9.2 mph - N/A   Scattered Clouds
12:55 PM 75.2 °F 62.6 °F 65% 29.78 in 10.0 mi West 6.9 mph - N/A   Scattered Clouds
1:15 PM 75.2 °F 62.6 °F 65% 29.78 in 10.0 mi WSW 3.5 mph - N/A   Scattered Clouds
1:35 PM 75.2 °F 62.6 °F 65% 29.78 in 5.0 mi West 5.8 mph - N/A   Mostly Cloudy
1:55 PM 77.0 °F 60.8 °F 57% 29.78 in 10.0 mi SW 3.5 mph - N/A   Mostly Cloudy
2:15 PM 78.8 °F 62.6 °F 57% 29.78 in 10.0 mi SW 5.8 mph - N/A   Mostly Cloudy
2:35 PM 78.8 °F 64.4 °F 61% 29.78 in 10.0 mi Calm Calm - N/A   Mostly Cloudy
2:55 PM 77.0 °F 62.6 °F 61% 29.77 in 10.0 mi NW 6.9 mph - N/A   Scattered Clouds
3:15 PM 78.8 °F 64.4 °F 61% 29.76 in 10.0 mi WNW 9.2 mph - N/A   Scattered Clouds
3:35 PM 77.0 °F 62.6 °F 61% 29.77 in 10.0 mi WNW 5.8 mph - N/A   Scattered Clouds
3:55 PM 77.0 °F 62.6 °F 61% 29.77 in 10.0 mi NW 6.9 mph - N/A   Mostly Cloudy
4:15 PM 77.0 °F 62.6 °F 61% 29.77 in 10.0 mi West 5.8 mph - N/A   Scattered Clouds
4:35 PM 78.8 °F 62.6 °F 57% 29.76 in 10.0 mi NW 5.8 mph - N/A   Scattered Clouds
4:55 PM 78.8 °F 62.6 °F 57% 29.77 in 10.0 mi WNW 5.8 mph - N/A   Clear
5:15 PM 78.8 °F 60.8 °F 54% 29.77 in 10.0 mi Calm Calm - N/A   Scattered Clouds
5:35 PM 78.8 °F 60.8 °F 54% 29.78 in 10.0 mi NNW 6.9 mph - N/A   Mostly Cloudy
5:55 PM 78.8 °F 60.8 °F 54% 29.78 in 10.0 mi WNW 5.8 mph - N/A   Scattered Clouds
6:15 PM 78.8 °F 60.8 °F 54% 29.78 in 10.0 mi NW 6.9 mph - N/A   Clear
6:35 PM 78.8 °F 60.8 °F 54% 29.77 in 10.0 mi NW 8.1 mph - N/A   Clear
6:55 PM 78.8 °F 60.8 °F 54% 29.78 in 10.0 mi NW 4.6 mph - N/A   Clear
7:15 PM 78.8 °F 59.0 °F 51% 29.79 in 10.0 mi Calm Calm - N/A   Clear
7:35 PM 77.0 °F 59.0 °F 54% 29.79 in 10.0 mi North 3.5 mph - N/A   Clear
7:55 PM 77.0 °F 59.0 °F 54% 29.80 in 10.0 mi Calm Calm - N/A   Clear
8:15 PM 77.0 °F 60.8 °F 57% 29.80 in 10.0 mi Calm Calm - N/A   Clear
8:35 PM 75.2 °F 59.0 °F 57% 29.80 in 10.0 mi Calm Calm - N/A   Clear
8:55 PM 73.4 °F 59.0 °F 61% 29.80 in 10.0 mi Calm Calm - N/A   Clear
9:15 PM 73.4 °F 59.0 °F 61% 29.80 in 7.0 mi Calm Calm - N/A   Clear
9:35 PM 73.4 °F 60.8 °F 65% 29.80 in 10.0 mi Calm Calm - N/A   Clear
9:55 PM 71.6 °F 60.8 °F 69% 29.81 in 10.0 mi Calm Calm - N/A   Clear
10:15 PM 71.6 °F 60.8 °F 69% 29.81 in 7.0 mi Calm Calm - N/A   Clear
10:35 PM 69.8 °F 60.8 °F 73% 29.82 in 10.0 mi Calm Calm - N/A   Clear
10:55 PM 69.8 °F 62.6 °F 78% 29.82 in 10.0 mi Calm Calm - N/A   Clear
11:15 PM 69.8 °F 62.6 °F 78% 29.82 in 10.0 mi Calm Calm - N/A   Scattered Clouds
11:35 PM 68.0 °F 62.6 °F 83% 29.82 in 10.0 mi Calm Calm - N/A   Clear
11:55 PM 69.8 °F 62.6 °F 78% 29.82 in 10.0 mi Calm Calm - N/A   Clear